Skip Page Navigation
NASA JPL Caltech
NASA Logo - Jet Propulsion Laboratory + View the NASA Portal
+ Center for Near-Earth Object Studies
JPL Home Earth Solar System Stars & Galaxies Technology
JPL Solar System Dynamics
BODIES ORBITS EPHEMERIDES TOOLS PHYSICAL DATA DISCOVERY FAQ SITE MAP
JPL Small-Body Database Browser
Search: [ help ]  
(2014 RC)
Classification: Apollo [NEO]          SPK-ID: 3685273
Ephemeris | Orbit Diagram | Orbital Elements | Mission Design | Physical Parameters | Close-Approach Data ]

[ show orbit diagram ]
Orbital Elements at Epoch 2459200.5 (2020-Dec-17.0) TDB
Reference: JPL 24 (heliocentric ecliptic J2000)
 Element Value Uncertainty (1-sigma)   Units 
e .3749755840046871 5.8612e-07  
a 1.313897826684438 2.1074e-07 au
q .8212182218009518 6.5212e-07 au
i 4.568644996447306 5.2707e-05 deg
node 344.9108896381091 1.6543e-05 deg
peri 71.10435228713348 9.5139e-05 deg
M 27.14679560196766 0.0023376 deg
tp 2459159.018267124898
(2020-Nov-05.51826712)
0.0035621 TDB
period 550.0989528927761
1.51
0.00013235
3.624e-07
d
yr
n .6544277136084102 1.5745e-07 deg/d
Q 1.806577431567925 2.8977e-07 au
  Orbit Determination Parameters
   # obs. used (total)      247  
   # delay obs. used      0  
   # Doppler obs. used      2  
   data-arc span      18 days  
   first obs. used      2014-08-20  
   last obs. used      2014-09-07  
   planetary ephem.      DE441  
   SB-pert. ephem.      SB441-N16  
   condition code      3  
   norm. resid. RMS      .34789  
   source      ORB  
   producer      Otto Matic  
   solution date      2021-Apr-15 11:08:29  

Additional Information
 Earth MOID = .000467571 au 
 Jupiter MOID = 3.56391 au 
 T_jup = 4.889 
[ show covariance matrix ]

Ephemeris | Orbit Diagram | Orbital Elements | Mission Design | Physical Parameters | Close-Approach Data ]

Physical Parameter Table
Parameter Symbol Value Units Sigma Reference Notes
absolute magnitude H 26.8   n/a MPO311496  
rotation period rot_per 0.004389 h n/a LCDB (Rev. 2020-October); Warner et al., 2009 Incomplete or inconclusive result.
Published Reference List:
[NASA/JPL NEO Program Office (2014) https://web.archive.org/web/20141011215227/http://neo.jpl.nasa.gov/ news/news185.html]

[ hide close-approach data ]
Close-Approach Data   ...sorted by Date/Time (TDB)
Date/Time (TDB) Time Uncertainty
(days_HH:MM)
Body Nominal Distance (au) Minimum Distance (au) Maximum Distance (au) V-relative (km/s) V-infinity (km/s) JD (TDB) Time Uncertainty (minutes) Semi-major axis (km) Semi-minor axis (km) range-LOV angle (deg) N-sigma BP Orbit Ref. Reference Modified
1944-Aug-07 01:20 5_03:25 Mars 0.0524287427300724 0.0503244078739854 0.0694661967564857 9.05818655299442 9.05758370205638 2431309.555727862 7405.46498397509 1654650.74469233 9.66846807991546 -73.7124820960666 773902.543966523 T 24 CATAB v2.0g-lin.ifort 2021-Apr-15 11:08:31 2021-Apr-15 11:08
1945-Sep-04 23:56 5_07:55 Earth 0.0168526913597123 0.0010814651164173 0.072622250158423 10.5140895299564 10.4990414074342 2431703.497256277 7675.32030482196 2782307.43315542 0.663162529177234 3.76313464271588 237366.861283264 T 24 CATAB v2.0g-lin.ifort 2021-Apr-15 11:08:31 2021-Apr-15 11:08
1950-Aug-13 13:03 2_07:52 Earth 0.386484788657153 0.341610384488505 0.431359270345784 21.3791554044699 21.3788329319714 2433507.043808157 3351.99661487656 2237723.68334012 2.20802338444777 -0.391903514284745 156574.60327158 T 24 CATAB v2.0g-lin.ifort 2021-Apr-15 11:08:31 2021-Apr-15 11:08
1952-May-30 09:30 10:25 Venus 0.126632486656019 0.108704347107935 0.144778654873772 3.93545289245593 3.93109306078194 2434162.895870114 625.351078258883 936881.904624568 15.9287306521481 16.3171184887425 287979.627942107 T 24 CATAB v2.0g-lin.ifort 2021-Apr-15 11:08:31 2021-Apr-15 11:08
1957-May-01 02:56 08:17 Venus 0.146029944098646 0.123419089633986 0.171718426650522 4.9192135997656 4.91618971770368 2435959.622050989 496.863041439512 1604450.70400157 9.93836144974528 -40.7455788013484 650019.69690376 T 24 CATAB v2.0g-lin.ifort 2021-Apr-15 11:08:31 2021-Apr-15 11:08
1957-Oct-09 10:20 15:44 Mars 0.0606470975856041 0.0514020967417701 0.0761339481645368 9.76128274646488 9.76079913115922 2436120.930401502 944.364666592246 1160093.29119048 9.09682081873621 56.021238338761 799203.786617576 T 24 CATAB v2.0g-lin.ifort 2021-Apr-15 11:08:31 2021-Apr-15 11:08
1959-Feb-10 21:24 1_13:53 Earth 0.494101177789848 0.462960556025733 0.525241759800921 24.9067674299163 24.9065509184058 2436610.391384530 2272.70970983123 1552840.18474045 19.8412182404972 0.0469584420225017 2421.792504304 T 24 CATAB v2.0g-lin.ifort 2021-Apr-15 11:08:31 2021-Apr-15 11:08
1964-Jan-22 12:52 1_14:40 Earth 0.12039548000724 0.0959926903533714 0.144939281669264 13.6055763580239 13.6039496440642 2438417.036289771 2319.52350269851 1237566.47022152 11.45087199643 -9.37991284288748 227667.288084001 T 24 CATAB v2.0g-lin.ifort 2021-Apr-15 11:08:31 2021-Apr-15 11:08
1968-Nov-21 21:02 3_00:37 Earth 0.15143718807991 0.149481991126503 0.153393463612968 8.35992878272047 8.3578238805307 2440182.376398537 4357.38934398967 99585.730584495 11.5963145449463 11.7470713277892 300099.935906376 T 24 CATAB v2.0g-lin.ifort 2021-Apr-15 11:08:31 2021-Apr-15 11:08
1973-Sep-05 22:07 01:48 Earth 0.0115132759876251 0.0107297832211913 0.0122970273955823 10.3419463080704 10.3195445665772 2441931.421250206 108.364804207427 39170.8915208531 0.7321448546094 4.09259786212427 156690.30268396 T 24 CATAB v2.0g-lin.ifort 2021-Apr-15 11:08:31 2021-Apr-15 11:08
1987-Jan-17 00:50 00:52 Earth 0.0371532107990854 0.0367821281790334 0.0375257443472685 10.9379848532856 10.9314262870102 2446812.534513552 52.3281941202431 21860.4508454116 10.5325644324702 -32.002328655789 263011.882120177 T 24 CATAB v2.0g-lin.ifort 2021-Apr-15 11:08:31 2021-Apr-15 11:08
1991-Sep-27 04:59 02:53 Earth 0.0990367538439136 0.0987087545588536 0.0993647765955833 7.63040958249562 7.62688288276766 2448526.707435020 173.267967903955 16532.3786506799 3.39836312559496 -8.33125894653083 614132.526219743 T 24 CATAB v2.0g-lin.ifort 2021-Apr-15 11:08:31 2021-Apr-15 11:08
1992-Feb-19 09:01 01:09 Earth 0.464107334716493 0.463793729962616 0.464420945101253 6.61817172162676 6.61730419191361 2448671.875640737 69.0563479508427 15844.7770424528 16.9480472664907 9.39921012653033 317472.39076128 T 24 CATAB v2.0g-lin.ifort 2021-Apr-15 11:08:31 2021-Apr-15 11:08
1996-Aug-15 10:44 00:29 Earth 0.354981324380469 0.354589913120692 0.355372735632518 20.4560834226356 20.4557164883777 2450310.947454698 29.4273839248137 19517.9221998594 1.88125284835766 -0.249140428901482 105492.992016356 T 24 CATAB v2.0g-lin.ifort 2021-Apr-15 11:08:31 2021-Apr-15 11:08
1999-Sep-22 14:00 00:02 Mars 0.0373329213075665 0.0370631567233751 0.0376030676052608 8.53115191695615 8.53025297960887 2451444.083322023 1.8337639264892 14719.1582182676 15.3766920255974 23.8535744773665 149742.260048774 T 24 CATAB v2.0g-lin.ifort 2021-Apr-15 11:08:31 2021-Apr-15 11:08
2005-Feb-05 14:37 00:18 Earth 0.377141481950081 0.376886158149703 0.377396805880052 21.3597207120346 21.359389949854 2453407.108730713 18.2497318672595 12736.7406037933 16.1509202360278 -1.60240792236002 87133.8084563364 T 24 CATAB v2.0g-lin.ifort 2021-Apr-15 11:08:31 2021-Apr-15 11:08
2009-Aug-02 01:03 00:22 Earth 0.477658475936027 0.477564541295059 0.477752410564316 6.40814223190372 6.40727168489788 2455045.543981930 22.1938478229295 4682.53232851413 15.7083393318251 0.859850924724979 30135.2363032902 T 24 CATAB v2.0g-lin.ifort 2021-Apr-15 11:08:31 2021-Apr-15 11:08
2009-Dec-30 12:58 00:50 Earth 0.0863661709479003 0.0862510005161075 0.086481354640781 7.75294444994573 7.74896417095345 2455196.040576281 50.017809168189 5986.3372035447 11.4989761028039 16.3457221151894 346918.821363517 T 24 CATAB v2.0g-lin.ifort 2021-Apr-15 11:08:31 2021-Apr-15 11:08
2014-Sep-07 08:47 < 00:01 Moon 0.000844845567680679 0.00084483705991475 0.000844854075518501 10.3652673066948 10.3615241383104 2456907.866182401 0.0177682764608656 0.635263650548056 0.241501622742579 -53.5875432113943 429980.146273561 T 24 CATAB v2.0g-lin.ifort 2021-Apr-15 11:08:31 2021-Apr-15 11:08
2014-Sep-07 18:02 < 00:01 Earth 0.000266769132887721 0.000266754597617301 0.00026678366815931 10.9512686292943 9.99771800305844 2456908.251101457 0.0180488386540553 0.725253002068958 0.111244067078249 -2.02478512120762 46439.4058211319 T 24 CATAB v2.0g-lin.ifort 2021-Apr-15 11:08:31 2021-Apr-15 11:08
2017-Sep-11 13:56 00:26 Earth 0.0386739572717968 0.0385316681636056 0.0388162472695896 8.92756393885251 8.91984338237978 2458008.080477702 25.7397624327398 7101.43735900354 1.37275532846661 -2.05757055357979 138678.478839978 T 24 CATAB v2.0g-lin.ifort 2021-Apr-15 11:08:31 2021-Apr-15 11:08
2020-Sep-22 21:38 01:04 Earth 0.0991157312521841 0.0989648793164755 0.0992665978817683 7.49207447772271 7.48848549212494 2459115.401691481 63.7423193355076 7759.82577374664 8.91515149200119 -14.1616966663927 335466.775087028 T 24 CATAB v2.0g-lin.ifort 2021-Apr-15 11:08:31 2021-Apr-15 11:08
2021-Mar-08 01:16 00:21 Earth 0.472449879749294 0.472350232583081 0.472549529409217 7.82333203636645 7.82261112003897 2459281.552696056 21.1815089365777 5255.6506403361 58.5501113577664 19.0417886169181 248816.509917659 T 24 CATAB v2.0g-lin.ifort 2021-Apr-15 11:08:31 2021-Apr-15 11:08
2023-Oct-14 09:50 01:18 Earth 0.148752017488056 0.148656356979644 0.148847689548337 7.67089183794148 7.668556392373 2460231.909705466 78.4261092992723 5199.2167159599 18.5326788792756 -23.4625716307074 363600.413326533 T 24 CATAB v2.0g-lin.ifort 2021-Apr-15 11:08:31 2021-Apr-15 11:08
2024-Feb-29 20:15 00:28 Earth 0.427770060257114 0.42764885629892 0.427891267633031 7.01309645017478 7.01220823198455 2460370.343880641 27.831794738957 6337.70721108933 50.9622443689536 17.5657276173911 222154.415852961 T 24 CATAB v2.0g-lin.ifort 2021-Apr-15 11:08:31 2021-Apr-15 11:08
